Time,TemperatureF,DewpointF,PressureIn,WindDirection,WindDirectionDegrees,WindSpeedMPH,WindSpeedGustMPH,Humidity,HourlyPrecipIn,Conditions,Clouds,dailyrainin,SoftwareType,DateUTC
2013-09-16 00:13:00,83.0,76.0,30.04,SE,131,3.0,6.0,80,0.00,,,0.00,,2013-09-16 05:13:00,
2013-09-16 00:22:00,83.0,77.0,30.04,SE,135,2.0,8.0,81,0.00,,,0.00,,2013-09-16 05:22:00,
2013-09-16 00:53:00,83.0,77.0,30.04,SE,130,3.0,8.0,81,0.00,,,0.00,,2013-09-16 05:53:00,
2013-09-16 01:12:00,82.0,76.0,30.04,SE,131,4.0,8.0,82,0.00,,,0.00,,2013-09-16 06:12:00,
2013-09-16 01:22:00,82.0,76.0,30.04,SE,134,2.0,7.0,82,0.00,,,0.00,,2013-09-16 06:22:00,
2013-09-16 01:52:00,82.0,76.0,30.04,SE,142,3.0,8.0,82,0.00,,,0.00,,2013-09-16 06:52:00,
2013-09-16 02:11:00,82.0,76.0,30.04,SE,138,2.0,8.0,82,0.00,,,0.00,,2013-09-16 07:11:00,
2013-09-16 02:22:00,82.0,76.0,30.03,SE,136,3.0,6.0,82,0.00,,,0.00,,2013-09-16 07:22:00,
2013-09-16 02:52:00,82.0,76.0,30.03,SE,140,3.0,7.0,83,0.00,,,0.00,,2013-09-16 07:52:00,
2013-09-16 03:11:00,82.0,76.0,30.03,SE,142,2.0,7.0,82,0.00,,,0.00,,2013-09-16 08:11:00,
2013-09-16 03:22:00,83.0,77.0,30.03,SE,141,4.0,7.0,82,0.00,,,0.00,,2013-09-16 08:22:00,
2013-09-16 03:52:00,82.0,76.0,30.03,SE,142,1.0,4.0,83,0.00,,,0.00,,2013-09-16 08:52:00,
2013-09-16 04:12:00,82.0,77.0,30.03,SE,142,1.0,5.0,84,0.00,,,0.00,,2013-09-16 09:12:00,
2013-09-16 04:22:00,82.0,77.0,30.02,SE,142,3.0,5.0,85,0.00,,,0.00,,2013-09-16 09:22:00,
2013-09-16 04:43:00,82.0,77.0,30.02,SE,138,3.0,6.0,85,0.00,,,0.00,,2013-09-16 09:43:00,
2013-09-16 04:53:00,81.0,76.0,30.02,SE,137,3.0,5.0,84,0.00,,,0.00,,2013-09-16 09:53:00,
2013-09-16 05:12:00,81.0,76.0,30.01,SE,137,1.0,4.0,85,0.00,,,0.00,,2013-09-16 10:12:00,
2013-09-16 05:23:00,81.0,76.0,30.01,SE,133,3.0,5.0,85,0.00,,,0.00,,2013-09-16 10:23:00,
2013-09-16 05:42:00,81.0,76.0,30.01,SE,126,5.0,7.0,85,0.00,,,0.00,,2013-09-16 10:42:00,
2013-09-16 05:53:00,83.0,77.0,30.02,ESE,117,5.0,8.0,82,0.00,,,0.00,,2013-09-16 10:53:00,
2013-09-16 06:12:00,82.0,76.0,30.02,ESE,116,5.0,7.0,83,0.00,,,0.00,,2013-09-16 11:12:00,
2013-09-16 06:22:00,82.0,76.0,30.02,ESE,116,6.0,8.0,83,0.00,,,0.00,,2013-09-16 11:22:00,
2013-09-16 06:42:00,83.0,77.0,30.02,ESE,115,5.0,9.0,82,0.00,,,0.00,,2013-09-16 11:42:00,
2013-09-16 06:52:00,82.0,76.0,30.02,ESE,109,3.0,7.0,83,0.00,,,0.00,,2013-09-16 11:52:00,
2013-09-16 07:12:00,82.0,77.0,30.03,ESE,109,2.0,7.0,84,0.00,,,0.00,,2013-09-16 12:12:00,
2013-09-16 07:22:00,82.0,76.0,30.03,ESE,109,3.0,8.0,83,0.00,,,0.00,,2013-09-16 12:22:00,
2013-09-16 07:52:00,82.0,77.0,30.04,ESE,106,4.0,8.0,84,0.00,,,0.00,,2013-09-16 12:52:00,
2013-09-16 08:11:00,83.0,78.0,30.05,ESE,108,3.0,7.0,84,0.00,,,0.00,,2013-09-16 13:11:00,
2013-09-16 08:22:00,83.0,78.0,30.05,ESE,109,6.0,8.0,84,0.00,,,0.00,,2013-09-16 13:22:00,
2013-09-16 08:52:00,84.0,79.0,30.06,ESE,109,6.0,8.0,84,0.00,,,0.00,,2013-09-16 13:52:00,
2013-09-16 09:11:00,84.0,78.0,30.06,East,98,6.0,8.0,83,0.00,,,0.00,,2013-09-16 14:11:00,
2013-09-16 09:22:00,84.0,78.0,30.07,ESE,115,6.0,9.0,82,0.00,,,0.00,,2013-09-16 14:22:00,
2013-09-16 09:52:00,84.0,78.0,30.07,ESE,119,7.0,12.0,83,0.00,,,0.00,,2013-09-16 14:52:00,
2013-09-16 10:12:00,85.0,78.0,30.08,ESE,110,7.0,12.0,81,0.00,,,0.00,,2013-09-16 15:12:00,
2013-09-16 10:22:00,86.0,79.0,30.08,East,94,9.0,13.0,79,0.00,,,0.00,,2013-09-16 15:22:00,
2013-09-16 10:43:00,86.0,78.0,30.09,ESE,121,5.0,12.0,78,0.00,,,0.00,,2013-09-16 15:43:00,
2013-09-16 10:53:00,87.0,79.0,30.08,SE,124,5.0,13.0,77,0.00,,,0.00,,2013-09-16 15:53:00,
2013-09-16 11:12:00,86.0,78.0,30.08,ESE,123,8.0,14.0,77,0.00,,,0.00,,2013-09-16 16:12:00,
2013-09-16 11:23:00,87.0,78.0,30.08,SE,136,4.0,9.0,74,0.00,,,0.00,,2013-09-16 16:23:00,
2013-09-16 11:43:00,88.0,78.0,30.08,ESE,112,7.0,11.0,72,0.00,,,0.00,,2013-09-16 16:43:00,
2013-09-16 11:52:00,88.0,77.0,30.08,ESE,118,11.0,15.0,69,0.00,,,0.00,,2013-09-16 16:52:00,
2013-09-16 12:12:00,88.0,77.0,30.08,SE,140,6.0,12.0,71,0.00,,,0.00,,2013-09-16 17:12:00,
2013-09-16 12:23:00,89.0,78.0,30.08,SE,132,10.0,14.0,70,0.00,,,0.00,,2013-09-16 17:23:00,
2013-09-16 12:42:00,88.0,77.0,30.08,ENE,74,6.0,11.0,71,0.00,,,0.00,,2013-09-16 17:42:00,
2013-09-16 12:53:00,89.0,77.0,30.08,ESE,115,9.0,13.0,69,0.00,,,0.00,,2013-09-16 17:53:00,
2013-09-16 13:12:00,90.0,78.0,30.08,ESE,108,9.0,13.0,67,0.00,,,0.00,,2013-09-16 18:12:00,
2013-09-16 13:22:00,90.0,78.0,30.07,ESE,119,6.0,14.0,68,0.00,,,0.00,,2013-09-16 18:22:00,
2013-09-16 13:42:00,90.0,77.0,30.07,SSE,165,6.0,12.0,66,0.00,,,0.00,,2013-09-16 18:42:00,
2013-09-16 13:52:00,92.0,78.0,30.06,SE,130,6.0,13.0,64,0.00,,,0.00,,2013-09-16 18:52:00,
2013-09-16 14:11:00,93.0,78.0,30.06,SE,136,6.0,11.0,62,0.00,,,0.00,,2013-09-16 19:11:00,
2013-09-16 14:22:00,94.0,78.0,30.05,South,173,4.0,12.0,61,0.00,,,0.00,,2013-09-16 19:22:00,
2013-09-16 14:53:00,93.0,79.0,30.03,SE,126,3.0,12.0,63,0.00,,,0.00,,2013-09-16 19:53:00,
2013-09-16 15:11:00,94.0,78.0,30.03,ESE,119,3.0,13.0,60,0.00,,,0.00,,2013-09-16 20:11:00,
2013-09-16 15:22:00,95.0,79.0,30.02,South,170,3.0,9.0,61,0.00,,,0.00,,2013-09-16 20:22:00,
2013-09-16 15:43:00,92.0,79.0,30.02,ESE,109,11.0,16.0,65,0.00,,,0.00,,2013-09-16 20:43:00,
2013-09-16 15:52:00,90.0,77.0,30.02,East,90,11.0,22.0,66,0.00,,,0.00,,2013-09-16 20:52:00,
2013-09-16 16:11:00,89.0,74.0,30.03,ESE,109,13.0,19.0,61,0.00,,,0.00,,2013-09-16 21:11:00,
2013-09-16 16:22:00,89.0,76.0,30.03,ESE,121,6.0,15.0,65,0.00,,,0.00,,2013-09-16 21:22:00,
2013-09-16 16:56:00,89.0,76.0,30.03,ESE,113,8.0,14.0,65,0.00,,,0.00,,2013-09-16 21:56:00,
2013-09-16 17:13:00,89.0,76.0,30.02,SE,131,8.0,16.0,65,0.00,,,0.00,,2013-09-16 22:13:00,
2013-09-16 17:24:00,89.0,76.0,30.02,SE,128,6.0,15.0,65,0.00,,,0.00,,2013-09-16 22:24:00,
2013-09-16 17:43:00,90.0,76.0,30.02,SSE,160,7.0,15.0,63,0.00,,,0.00,,2013-09-16 22:43:00,
2013-09-16 17:54:00,90.0,76.0,30.02,East,98,6.0,13.0,64,0.00,,,0.00,,2013-09-16 22:54:00,
2013-09-16 18:12:00,89.0,76.0,30.02,East,90,5.0,11.0,66,0.00,,,0.00,,2013-09-16 23:12:00,
2013-09-16 18:22:00,89.0,77.0,30.02,SE,134,4.0,12.0,67,0.00,,,0.00,,2013-09-16 23:22:00,
2013-09-16 18:43:00,88.0,76.0,30.02,SE,138,4.0,10.0,67,0.00,,,0.00,,2013-09-16 23:43:00,
2013-09-16 18:53:00,87.0,75.0,30.02,SE,129,4.0,12.0,67,0.00,,,0.00,,2013-09-16 23:53:00,
2013-09-16 19:11:00,87.0,75.0,30.02,SE,128,3.0,8.0,67,0.00,,,0.00,,2013-09-17 00:11:00,
2013-09-16 19:22:00,86.0,75.0,30.02,SE,134,5.0,9.0,71,0.00,,,0.00,,2013-09-17 00:22:00,
2013-09-16 19:42:00,85.0,75.0,30.02,SE,130,4.0,9.0,73,0.00,,,0.00,,2013-09-17 00:42:00,
2013-09-16 19:52:00,85.0,76.0,30.02,SE,132,3.0,9.0,75,0.00,,,0.00,,2013-09-17 00:52:00,
2013-09-16 20:11:00,86.0,77.0,30.02,SE,144,2.0,10.0,74,0.00,,,0.00,,2013-09-17 01:11:00,
2013-09-16 20:21:00,85.0,77.0,30.03,South,175,3.0,7.0,78,0.00,,,0.00,,2013-09-17 01:21:00,
2013-09-16 20:42:00,85.0,77.0,30.03,SE,139,4.0,8.0,78,0.00,,,0.00,,2013-09-17 01:42:00,
2013-09-16 20:52:00,84.0,77.0,30.04,SE,140,3.0,5.0,80,0.00,,,0.00,,2013-09-17 01:52:00,
2013-09-16 21:11:00,84.0,78.0,30.04,SE,144,2.0,7.0,82,0.00,,,0.00,,2013-09-17 02:11:00,
2013-09-16 21:22:00,84.0,78.0,30.05,SE,146,3.0,6.0,82,0.00,,,0.00,,2013-09-17 02:22:00,
2013-09-16 21:42:00,84.0,77.0,30.05,SSE,147,2.0,7.0,80,0.00,,,0.00,,2013-09-17 02:42:00,
2013-09-16 21:52:00,84.0,77.0,30.05,SE,146,1.0,6.0,80,0.00,,,0.00,,2013-09-17 02:52:00,
2013-09-16 22:11:00,83.0,77.0,30.05,SE,146,2.0,5.0,81,0.00,,,0.00,,2013-09-17 03:11:00,
2013-09-16 22:23:00,83.0,77.0,30.06,SSE,147,1.0,6.0,81,0.00,,,0.00,,2013-09-17 03:23:00,
2013-09-16 22:45:00,83.0,77.0,30.06,SSE,147,1.0,4.0,82,0.00,,,0.00,,2013-09-17 03:45:00,
2013-09-16 22:54:00,83.0,77.0,30.06,SSE,148,2.0,4.0,81,0.00,,,0.00,,2013-09-17 03:54:00,
2013-09-16 23:14:00,83.0,77.0,30.06,SSE,148,1.0,5.0,82,0.00,,,0.00,,2013-09-17 04:14:00,
2013-09-16 23:24:00,83.0,77.0,30.06,SSE,148,1.0,4.0,82,0.00,,,0.00,,2013-09-17 04:24:00,
2013-09-16 23:54:00,83.0,77.0,30.06,SSE,148,0.0,6.0,82,0.00,,,0.00,,2013-09-17 04:54:00,